Precipitable_Water
1.40 1.40 1.52 1.47 1.46 1.40 1.35 1.32 1.28 1.25 1.17 1.09 1.04 1.08 1.16 1.14 1.12 1.14 1.15 1.15 1.18 1.31 1.27 1.18 1.17 1.13 1.10 1.07 1.03 1.03 1.02 1.00 0.96
1.47 1.44 1.47 1.46 1.42 1.39 1.35 1.33 1.33 1.32 1.29 1.22 1.13 1.09 1.16 1.17 1.15 1.13 1.13 1.16 1.20 1.35 1.27 1.22 1.20 1.18 1.16 1.12 1.08 1.06 1.05 1.05 1.03
1.46 1.45 1.46 1.48 1.50 1.45 1.39 1.37 1.37 1.38 1.39 1.37 1.29 1.18 1.12 1.12 1.15 1.19 1.17 1.20 1.18 1.28 1.35 1.29 1.21 1.19 1.21 1.15 1.13 1.11 1.10 1.11 1.08
1.36 1.36 1.38 1.38 1.40 1.44 1.45 1.42 1.41 1.42 1.43 1.43 1.41 1.34 1.23 1.14 1.12 1.17 1.18 1.22 1.28 1.28 1.50 1.35 1.24 1.23 1.18 1.18 1.16 1.15 1.13 1.14 1.13
1.06 1.07 1.12 1.17 1.22 1.26 1.32 1.37 1.43 1.50 1.50 1.52 1.53 1.47 1.39 1.28 1.15 1.11 1.14 1.20 1.25 1.29 1.33 1.47 1.33 1.25 1.21 1.16 1.14 1.12 1.12 1.13 1.13
0.59 0.60 0.69 0.85 0.91 0.97 1.10 1.21 1.34 1.42 1.46 1.46 1.48 1.49 1.47 1.40 1.33 1.26 1.13 1.12 1.20 1.23 1.26 1.47 1.55 1.31 1.28 1.23 1.15 1.09 1.10 1.11 1.12
0.41 0.42 0.44 0.46 0.53 0.64 0.73 0.82 0.98 1.20 1.31 1.39 1.43 1.41 1.39 1.39 1.41 1.41 1.36 1.29 1.16 1.20 1.20 1.27 1.45 1.52 1.34 1.23 1.19 1.16 1.09 1.09 1.11
0.41 0.41 0.42 0.44 0.45 0.46 0.48 0.53 0.62 0.73 0.93 1.10 1.23 1.29 1.29 1.33 1.36 1.47 1.45 1.44 1.42 1.25 1.20 1.22 1.33 1.42 1.47 1.34 1.25 1.20 1.16 1.13 1.11
0.40 0.40 0.41 0.42 0.44 0.43 0.45 0.45 0.47 0.50 0.56 0.68 0.79 0.92 1.08 1.20 1.26 1.33 1.39 1.45 1.48 1.44 1.44 1.25 1.32 1.38 1.43 1.44 1.35 1.26 1.22 1.17 1.14
0.47 0.46 0.47 0.47 0.49 0.48 0.47 0.49 0.49 0.49 0.51 0.54 0.59 0.65 0.73 0.83 1.00 1.16 1.24 1.30 1.44 1.46 1.47 1.49 1.37 1.42 1.45 1.46 1.43 1.35 1.27 1.23 1.20
0.53 0.54 0.55 0.57 0.59 0.59 0.58 0.56 0.54 0.53 0.53 0.51 0.52 0.51 0.54 0.60 0.65 0.73 0.85 1.03 1.15 1.32 1.41 1.48 1.49 1.49 1.53 1.56 1.54 1.45 1.39 1.31 1.28
0.53 0.55 0.56 0.58 0.61 0.62 0.61 0.61 0.61 0.58 0.59 0.56 0.57 0.56 0.54 0.52 0.50 0.51 0.55 0.60 0.75 0.92 1.06 1.26 1.41 1.54 1.55 1.58 1.63 1.62 1.53 1.44 1.35
0.49 0.47 0.47 0.51 0.52 0.53 0.52 0.52 0.50 0.51 0.51 0.50 0.51 0.53 0.57 0.59 0.62 0.63 0.60 0.54 0.53 0.57 0.72 0.85 1.11 1.35 1.56 1.57 1.60 1.65 1.66 1.58 1.49
0.55 0.56 0.60 0.63 0.62 0.61 0.60 0.60 0.61 0.60 0.61 0.60 0.57 0.55 0.54 0.55 0.57 0.56 0.58 0.63 0.66 0.65 0.59 0.59 0.70 1.07 1.28 1.51 1.55 1.60 1.64 1.64 1.65
0.62 0.63 0.64 0.67 0.65 0.64 0.66 0.64 0.63 0.54 0.50 0.47 0.46 0.46 0.51 0.54 0.56 0.58 0.62 0.66 0.67 0.74 0.77 0.74 0.64 0.65 0.96 1.22 1.38 1.49 1.57 1.82 1.67
0.65 0.66 0.67 0.67 0.65 0.65 0.63 0.54 0.49 0.47 0.51 0.44 0.40 0.44 0.48 0.51 0.53 0.56 0.61 0.65 0.69 0.72 0.78 0.81 0.83 0.81 0.70 0.89 1.21 1.34 1.40 1.60 1.64
0.68 0.67 0.65 0.64 0.60 0.57 0.55 0.53 0.48 0.48 0.53 0.43 0.41 0.31 0.40 0.49 0.47 0.56 0.57 0.64 0.71 0.79 0.84 0.92 0.95 0.94 0.88 0.77 0.89 1.20 1.45 1.48 1.48
0.68 0.68 0.65 0.63 0.61 0.57 0.57 0.55 0.52 0.45 0.52 0.54 0.45 0.35 0.33 0.40 0.50 0.54 0.59 0.63 0.71 0.81 0.84 0.91 0.94 0.99 1.01 0.97 0.92 0.96 1.13 1.30 1.40
0.69 0.68 0.66 0.65 0.64 0.62 0.62 0.62 0.56 0.53 0.47 0.54 0.57 0.57 0.53 0.41 0.37 0.53 0.61 0.67 0.68 0.78 0.84 0.90 0.90 0.93 1.01 1.05 1.04 1.07 1.06 1.16 1.28
0.69 0.67 0.66 0.65 0.66 0.66 0.64 0.61 0.56 0.56 0.53 0.53 0.53 0.53 0.54 0.56 0.49 0.42 0.51 0.64 0.71 0.78 0.83 0.85 0.85 0.89 0.96 1.09 1.10 1.13 1.14 1.21 1.29
Wind_Speed
11 12 11 11 12 12 12 12 12 12 12 12 11 11 11 12 11 11 12 13 12 11 12 12 11 10 10 9 9 9 8 8 7
13 14 13 14 14 15 15 15 15 15 15 14 14 14 14 14 14 13 13 13 13 14 14 14 14 13 12 12 11 10 10 9 9
16 16 16 16 17 17 18 18 18 18 18 17 17 16 16 16 16 16 16 15 15 15 15 14 15 15 14 14 13 12 12 11 10
17 17 18 18 18 18 19 19 19 18 18 18 18 18 18 18 19 19 19 18 18 17 17 17 16 15 15 15 14 14 13 13 12
17 18 18 19 19 20 20 20 20 20 20 19 19 19 20 20 20 20 21 21 20 21 20 20 19 18 17 16 16 15 14 14 13
19 20 20 21 21 21 21 21 22 23 23 23 23 23 23 23 23 23 23 23 23 22 22 23 22 21 20 19 19 18 17 16 15
22 22 22 23 23 23 24 24 24 25 24 25 26 26 27 27 27 27 27 27 26 26 26 25 24 24 24 23 22 21 20 19 18
24 24 24 25 25 25 26 26 27 27 27 28 28 29 29 29 30 30 30 30 30 30 29 29 27 27 26 25 25 24 23 22 20
25 26 26 27 27 28 28 29 29 30 30 31 31 32 32 32 32 32 32 32 32 32 32 32 31 30 30 29 27 26 25 25 23
26 27 27 28 29 29 30 30 31 32 32 33 34 34 34 35 35 35 35 35 35 35 35 34 35 34 33 32 31 29 28 27 26
28 29 29 30 30 31 31 31 32 32 32 32 33 34 34 35 35 36 36 37 37 37 38 38 37 37 36 35 34 33 31 30 28
30 30 30 30 30 30 30 30 30 31 32 32 33 34 35 35 36 37 38 38 39 40 40 40 40 40 40 39 38 36 34 33 32
31 31 30 30 29 29 29 29 30 31 31 32 33 33 33 33 34 34 36 37 38 40 42 42 42 42 43 43 42 40 38 37 35
31 30 29 29 28 27 27 27 28 28 28 28 27 27 28 28 28 30 31 34 36 39 42 44 44 44 43 43 44 43 41 42 38
30 29 28 27 26 26 25 25 25 24 24 25 24 25 23 23 24 25 28 31 33 37 39 42 44 46 46 45 44 46 44 34 38
27 25 23 22 22 21 20 20 21 22 22 22 22 20 21 19 22 25 27 30 34 37 37 38 40 43 46 47 45 43 44 42 42
22 20 19 19 18 18 18 18 19 19 19 19 19 18 17 18 25 24 28 31 34 34 32 32 34 37 40 44 46 45 42 45 44
20 19 17 17 17 17 17 17 17 17 17 18 17 16 17 22 21 25 29 31 33 30 27 29 29 30 33 37 41 44 44 42 41
18 17 16 16 16 16 15 15 15 16 16 17 16 18 20 21 21 24 28 30 32 27 26 26 26 26 26 30 33 37 40 40 40
17 16 16 15 14 14 14 14 15 15 16 15 16 18 19 19 22 24 26 29 30 26 23 25 25 23 21 21 25 29 33 34 34
Wind_Direction
323 320 309 308 308 309 310 310 311 311 310 310 308 304 302 302 301 298 293 288 286 286 281 283 286 288 289 290 291 292 291 289 289
313 313 308 303 302 302 302 302 301 301 301 300 299 298 294 294 294 293 296 291 285 283 283 281 280 281 281 281 284 286 286 285 284
307 306 305 301 299 298 298 297 295 295 295 294 293 293 291 289 287 287 290 289 285 284 281 281 281 279 276 277 279 280 281 279 280
304 303 302 300 298 297 296 296 295 293 292 292 291 290 289 288 285 283 283 285 282 282 279 278 279 277 276 276 275 275 277 277 277
305 304 302 300 298 297 295 293 292 291 290 290 290 289 289 288 286 285 282 281 280 278 278 273 274 274 272 272 272 272 273 273 274
304 302 301 299 297 296 295 294 292 289 287 286 287 287 286 285 284 283 282 280 278 278 276 272 269 270 270 269 268 268 268 269 269
302 301 299 297 296 295 293 292 291 291 288 286 285 285 284 284 283 281 280 279 277 275 274 273 269 268 268 267 266 265 264 265 266
300 299 297 296 295 294 292 291 290 290 288 287 286 285 285 283 282 281 280 278 276 274 272 270 269 266 266 266 265 263 262 262 263
300 299 297 295 294 293 292 291 290 289 288 287 286 285 284 283 282 281 280 278 276 273 271 269 267 266 264 264 264 262 261 259 259
300 299 297 296 294 293 292 291 290 289 289 288 287 285 284 282 281 280 278 277 275 273 271 269 266 265 264 262 261 261 259 258 257
299 299 298 296 295 294 293 292 291 290 289 288 287 286 285 283 281 280 278 276 275 274 271 269 267 264 263 261 259 259 257 256 256
299 298 297 297 296 295 295 294 293 292 291 290 288 287 286 284 282 281 279 277 275 273 272 270 266 263 262 259 258 257 255 255 254
299 298 297 297 297 297 296 296 295 295 294 292 290 289 287 286 285 283 282 280 278 275 272 269 267 264 260 259 256 255 254 253 252
298 297 297 297 297 297 298 298 299 299 298 297 296 295 292 290 289 288 287 285 283 280 275 270 266 263 260 257 256 253 253 253 250
298 297 296 297 298 299 299 300 301 302 302 303 300 300 298 296 297 297 297 295 293 289 281 273 267 263 260 257 255 253 253 249 253
300 300 299 299 301 302 304 305 307 307 308 306 307 305 305 302 306 307 305 303 300 295 288 279 272 266 260 256 254 252 250 247 253
301 300 300 301 302 304 306 310 310 309 314 313 312 312 311 312 314 312 312 310 308 301 292 286 279 271 263 256 251 249 249 248 248
299 299 299 301 303 304 307 308 313 314 317 321 317 317 313 317 315 319 319 318 318 307 296 293 288 281 267 258 251 247 246 249 247
295 296 298 300 302 304 306 310 312 314 318 323 322 319 317 317 319 323 325 327 325 315 304 300 291 286 276 262 253 248 244 244 243
291 293 295 298 300 303 306 308 311 315 318 322 324 325 324 323 323 327 331 334 336 328 317 309 297 287 280 269 254 246 241 238 238